Tracking 25953 objects as of 16-Aug-2022
HD Live streaming from Space Station
objects crossing your sky now

TEVEL-1

Track TEVEL-1 now!
10-day predictions
TEVEL-1 is classified as:


NORAD ID: 51013
Int'l Code: 2022-002AF
Perigee: 522.0 km
Apogee: 534.1 km
Inclination: 97.5 °
Period: 95.0 minutes
Semi major axis: 6899 km
RCS: Unknown
Launch date: January 13, 2022
Source: (TBD)
Launch site: AIR FORCE EASTERN TEST RANGE (AFETR)

Uplink (MHz): 145.970
Downlink (MHz): 436.400
Beacon (MHz):
Mode: 9600bps BPSK FM
Call sign: T1OFK
Status: Active

aabbcc
Your satellite tracking list
Your tracking list is empty




NASA's NSSDC Master Catalog

Two Line Element Set (TLE):
1 51013U 22002AF  22227.88855145  .00005441  00000-0  29442-3 0  9993
2 51013  97.4781 293.8712 0008806 208.5944 239.2230 15.15027589 32418
Source of the keplerian elements: AFSPC